Location: Gugi
(45.4667°N, 11.1000°E)
Time: 10:15:32
(UTC+00:00)

NOAA 11 - Pass Details

Date: 17 November 2019
Orbit: 834 x 849 km, 98.4° (Epoch: 05 December)

Event Time Altitude Azimuth Distance (km) Brightness Sun altitude
Rises 17:34:16 0° 152° (SSE) 3,368 7.1 -19.2°
Reaches altitude 10° 17:36:39 10° 148° (SSE) 2,438 6.4 -19.7°
Maximum altitude 17:41:55 57° 71° (ENE) 980 4.2 -20.6°
Drops below altitude 10° 17:47:15 10° 354° (N) 2,459 6.6 -21.5°
Sets 17:49:39 0° 350° (N) 3,399 7.4 -21.9°
